CAPE
0 0 0 0 0 0 0 0 0 0 0 0 0 0 0 0 0 0 0 0 0 0 0 0 0 1 3 0 0 0 0 0 0 0 0 0 0 0
0 0 0 0 0 0 0 0 0 0 1 0 0 0 0 0 0 0 0 0 0 0 0 0 0 0 1 0 0 0 0 0 0 0 0 0 0 1
0 0 0 0 0 0 0 0 0 0 1 1 0 0 0 0 0 0 0 0 0 0 0 0 0 0 0 0 0 0 0 0 0 0 0 0 0 3
0 1 0 0 0 0 0 0 0 0 0 1 0 0 0 0 0 0 0 0 0 0 0 0 0 0 0 0 0 0 0 1 5 3 0 0 0 0
0 0 0 0 0 0 0 0 0 0 0 0 0 0 0 0 0 0 0 0 0 0 0 0 0 0 0 0 0 0 0 4 7 3 1 0 0 0
0 0 0 0 0 0 0 0 0 0 0 0 1 1 0 0 0 0 0 0 0 0 0 0 0 0 0 0 0 0 0 1 0 2 0 0 0 5
0 0 0 0 0 0 0 0 0 0 0 0 0 0 0 0 0 0 0 0 0 0 0 0 0 0 0 0 0 0 0 0 0 0 0 0 0 0
0 0 0 0 0 0 0 0 0 0 0 0 0 0 0 0 0 0 0 0 0 0 2 0 0 0 0 0 0 0 0 0 0 0 0 0 0 0
0 0 0 0 0 0 0 0 0 0 0 0 0 0 0 0 0 0 0 0 0 0 0 0 2 0 0 0 0 0 0 0 0 0 0 0 0 0
0 0 0 0 0 0 0 0 0 0 0 0 0 0 0 0 0 0 0 0 0 0 2 2 0 2 0 0 0 0 0 0 0 0 0 0 0 0
0 0 0 0 0 0 0 0 0 0 0 0 0 0 0 0 0 0 1 2 1 0 0 0 0 1 0 0 0 0 0 0 0 0 0 0 0 0
0 0 0 0 0 0 0 0 0 0 0 0 0 0 0 0 0 0 0 1 0 1 0 0 0 3 3 0 0 0 0 0 0 0 0 0 0 0
0 0 0 0 0 0 0 0 0 0 0 0 0 0 0 0 0 0 0 0 1 0 0 2 0 0 0 0 0 0 0 0 0 0 0 0 0 0
0 0 0 0 0 0 0 0 0 0 0 0 0 0 0 0 0 0 0 0 2 1 0 3 0 0 0 0 0 0 0 0 0 0 0 0 0 0
0 0 0 0 0 0 0 0 0 0 0 0 0 0 0 0 0 0 0 0 0 0 0 1 3 0 0 0 0 0 0 0 0 0 0 0 0 0
0 0 0 0 0 0 0 0 0 0 0 0 0 0 0 0 0 0 0 0 2 0 0 0 0 0 0 0 0 0 0 0 0 0 0 0 0 0
0 0 0 0 0 0 0 0 0 0 0 0 0 0 0 0 0 0 0 0 2 1 0 0 1 0 0 0 0 0 0 0 0 0 0 0 0 0
0 0 0 0 0 0 0 0 0 0 0 0 0 0 0 0 0 0 0 1 2 0 1 0 0 0 0 0 0 0 0 0 0 0 0 0 0 0
0 0 0 0 0 0 0 0 0 0 0 0 0 0 0 0 0 0 0 0 0 0 0 0 0 0 0 0 0 0 0 0 0 0 0 0 0 0
0 0 0 0 0 0 0 0 0 0 0 0 0 0 0 0 0 0 0 0 0 0 0 0 0 0 0 0 0 0 0 0 0 0 0 0 0 0
0 0 0 0 0 0 0 0 0 0 0 0 0 0 0 0 0 0 0 0 0 0 0 0 0 0 0 0 0 0 0 0 0 0 0 0 0 0
0 0 0 0 0 0 0 0 0 0 0 0 0 0 0 0 0 0 0 0 0 0 0 0 1 0 0 0 0 0 0 0 0 0 0 0 0 0
0 0 0 0 0 0 0 0 0 0 0 0 0 0 0 0 0 0 0 0 0 0 0 0 0 0 0 0 0 0 0 0 0 0 0 0 0 0
CIN
-0 -0 -0 -0 -0 -0 -0 -0 -0 -0 -0 -0 -0 -0 -0 -0 -0 -0 -0 -0 -0 -0 -0 -0 -0 -48 -41 -0 -0 -0 -0 -0 -0 -0 -0 -0 -0 -0
-0 -0 -0 -0 -0 -0 -0 -0 -0 -0 -0 -0 -0 -0 -0 -0 -0 -0 -0 -0 -0 -0 -0 -0 -0 -25 -51 -0 -0 -0 -0 -0 -0 -0 -0 -0 -0 -0
-0 -0 -0 -0 -0 -0 -0 -0 -0 -0 -0 -0 -0 -0 -0 -0 -0 -0 -0 -0 -0 -0 -0 -0 -0 -0 -0 -0 -14 -5 -0 -0 -5 -0 -0 -0 -0 -2
-0 -0 -0 -0 -0 -0 -0 -0 -0 -0 -0 -0 -0 -0 -0 -0 -0 -0 -0 -0 -0 -0 -0 -0 -0 -0 -0 -0 -0 -0 -0 -5 -7 -5 -0 -0 -0 -0
-0 -0 -0 -0 -0 -0 -0 -0 -0 -0 -0 -0 -0 -0 -0 -0 -0 -0 -0 -0 -0 -0 -0 -0 -0 -0 -0 -0 -0 -0 -0 -0 -4 -0 -9 -0 -0 -0
-0 -0 -0 -0 -0 -0 -0 -0 -0 -0 -0 -0 -0 -0 -0 -0 -0 -0 -0 -0 -0 -0 -0 -0 -0 -0 -0 -0 -0 -0 -0 -0 -0 -3 -0 -0 -0 -15
-0 -0 -0 -0 -0 -0 -0 -0 -0 -0 -0 -0 -0 -0 -0 -0 -0 -0 -0 -0 -0 -0 -0 -0 -0 -0 -0 -0 -0 -15 -0 -0 -0 -0 -0 -0 -0 -0
-0 -0 -0 -0 -0 -0 -0 -0 -0 -0 -0 -0 -0 -0 -0 -0 -0 -0 -0 -0 -0 -0 -5 -0 -0 -0 -0 -0 -0 -0 -0 -0 -0 -0 -0 -0 -0 -0
-0 -0 -0 -0 -0 -0 -0 -0 -0 -0 -0 -0 -0 -0 -0 -0 -0 -0 -0 -0 -0 -0 -0 -0 -4 -0 -0 -0 -0 -0 -0 -0 -0 -0 -0 -0 -0 -0
-0 -0 -0 -0 -0 -0 -0 -0 -0 -0 -0 -0 -0 -0 -0 -0 -0 -0 -0 -0 -0 -1 -1 -0 -2 -4 -0 -0 -0 -0 -0 -0 -0 -0 -0 -0 -0 -0
-0 -0 -0 -0 -0 -0 -0 -0 -0 -0 -0 -0 -0 -0 -0 -0 -0 -0 -0 -0 -0 -0 -0 -0 -0 -2 -0 -0 -0 -0 -0 -0 -0 -0 -0 -0 -0 -0
-0 -0 -0 -0 -0 -0 -0 -0 -0 -0 -0 -0 -0 -0 -0 -0 -0 -0 -0 -0 -0 -0 -0 -0 -0 -1 -2 -0 -0 -0 -0 -0 -0 -0 -0 -0 -0 -0
-0 -0 -0 -0 -0 -0 -0 -0 -0 -0 -0 -0 -0 -0 -0 -0 -0 -0 -0 -0 -0 -0 -0 -0 -0 -0 -0 -0 -0 -0 -0 -0 -0 -0 -0 -0 -0 -0
-0 -0 -0 -0 -0 -0 -0 -0 -0 -0 -0 -0 -0 -0 -0 -0 -0 -0 -0 -0 -0 -0 -0 -0 -1 -1 -0 -0 -0 -0 -0 -0 -0 -0 -0 -0 -0 -0
-0 -0 -0 -0 -0 -0 -0 -0 -0 -0 -0 -0 -0 -0 -0 -0 -0 -0 -0 -0 -0 -0 -0 -0 -1 -0 -0 -0 -0 -0 -0 -0 -0 -0 -0 -0 -0 -0
-0 -0 -0 -0 -0 -0 -0 -0 -0 -0 -0 -0 -0 -0 -0 -0 -0 -0 -0 -0 -0 -0 -0 -0 -0 -0 -0 -0 -0 -0 -0 -0 -0 -0 -0 -0 -0 -0
-0 -0 -0 -0 -0 -0 -0 -0 -0 -0 -0 -0 -0 -0 -0 -0 -0 -0 -0 -0 -0 -0 -0 -0 -0 -0 -0 -0 -0 -0 -0 -0 -0 -0 -0 -0 -0 -0
-0 -0 -0 -0 -0 -0 -0 -0 -0 -0 -0 -0 -0 -0 -0 -0 -0 -0 -0 -0 -0 -0 -0 -0 -0 -0 -0 -0 -0 -0 -0 -0 -0 -0 -0 -0 -0 -0
-0 -0 -0 -0 -0 -0 -0 -0 -0 -0 -0 -0 -0 -0 -0 -0 -0 -0 -0 -0 -0 -0 -0 -0 -0 -0 -0 -0 -0 -0 -0 -0 -0 -0 -0 -0 -0 -0
-0 -0 -0 -0 -0 -0 -0 -0 -0 -0 -0 -0 -0 -0 -0 -0 -0 -0 -0 -0 -0 -0 -0 -0 -0 -0 -0 -0 -0 -0 -0 -0 -0 -0 -0 -0 -0 -0
-0 -0 -0 -0 -0 -0 -0 -0 -0 -0 -0 -0 -0 -0 -0 -0 -0 -0 -0 -0 -0 -0 -0 -0 -0 -0 -0 -0 -0 -0 -0 -0 -0 -0 -0 -0 -0 -0
-0 -0 -0 -0 -0 -0 -0 -0 -0 -0 -0 -0 -0 -0 -0 -0 -0 -0 -0 -0 -0 -0 -0 -0 -0 -0 -0 -0 -0 -0 -0 -0 -0 -0 -0 -0 -0 -0
-0 -0 -0 -0 -0 -0 -0 -0 -0 -0 -0 -0 -0 -0 -0 -0 -0 -0 -0 -0 -0 -0 -0 -0 -0 -0 -0 -0 -0 -0 -0 -0 -0 -0 -0 -0 -0 -0
Wind_Speed
19 13 16 19 18 19 21 22 24 28 27 23 25 26 29 30 26 24 24 25 25 25 26 26 26 27 28 29 29 29 29 30 31 31 32 34 34 34
13 15 17 17 18 18 19 20 20 23 30 24 28 28 29 28 28 29 28 28 28 27 27 28 29 30 31 32 32 30 30 31 30 30 30 31 32 32
16 16 17 17 17 18 19 19 22 23 29 29 28 28 28 29 30 29 29 29 29 28 30 31 32 34 35 34 34 32 31 33 29 28 30 30 31 33
16 16 18 16 17 17 19 21 23 23 27 32 29 28 29 30 31 32 32 31 32 32 32 33 33 34 35 35 35 33 32 31 30 29 29 29 30 31
16 15 15 16 18 17 20 22 25 27 27 28 32 29 31 31 34 33 34 35 34 34 35 35 35 36 35 35 34 34 34 31 30 28 26 28 29 31
15 14 15 15 16 20 21 24 27 27 26 29 31 32 33 34 35 39 41 37 39 37 38 38 38 38 37 35 33 31 34 28 27 25 28 27 28 29
15 15 15 17 20 20 23 24 25 26 29 31 33 34 35 37 40 40 44 45 43 40 42 42 39 39 36 34 31 27 24 25 24 26 26 26 27 25
13 15 17 18 18 20 21 22 23 26 30 32 34 37 39 40 40 43 46 48 51 41 44 47 40 41 36 29 25 24 23 20 21 22 24 23 21 23
14 15 17 19 19 20 22 24 26 27 29 32 36 38 40 40 42 44 44 45 47 46 46 50 41 40 32 29 24 22 21 20 18 20 21 18 20 23
15 16 17 19 21 23 25 27 29 30 30 31 33 35 35 37 38 40 43 45 46 44 40 49 41 38 31 26 23 20 17 15 17 18 16 18 20 22
17 17 18 20 23 25 27 30 31 32 32 33 34 35 36 37 38 42 44 47 50 48 40 41 39 35 30 27 22 17 14 14 16 13 15 20 21 23
18 19 21 23 25 27 28 31 34 35 37 37 36 35 35 36 38 39 42 46 46 51 39 38 38 33 30 23 18 13 14 12 9 13 18 21 23 26
20 22 24 26 26 27 27 30 33 34 36 37 38 38 38 39 40 41 41 41 44 45 37 34 33 30 22 21 18 11 8 8 11 16 21 22 23 22
24 25 26 26 27 26 28 31 32 34 36 38 40 41 42 44 44 44 43 41 38 37 34 30 28 24 17 16 12 9 9 12 14 17 19 20 21 24
24 25 26 26 26 28 30 31 32 36 38 40 42 43 44 45 46 46 44 43 41 36 29 25 20 16 12 10 10 11 12 14 14 15 15 19 23 21
25 26 26 26 28 30 31 32 34 35 38 40 43 43 44 46 46 46 47 46 43 37 28 20 13 9 9 9 10 12 12 15 14 12 17 25 21 18
26 27 29 30 32 32 32 33 35 37 39 41 43 44 46 46 46 44 42 42 38 35 29 22 9 7 6 9 11 13 12 14 14 17 20 23 19 18
27 29 30 31 32 33 34 36 36 38 40 41 42 43 46 46 45 43 39 38 36 31 26 18 8 8 9 12 11 13 13 14 17 18 18 19 23 21
29 29 30 31 32 33 35 37 39 38 39 41 42 42 44 42 43 41 38 37 35 29 25 11 9 8 9 11 16 7 11 13 17 19 18 15 19 26
28 29 31 31 33 35 37 38 39 39 41 42 42 41 41 41 41 38 35 34 33 28 24 10 11 11 10 11 15 18 8 13 15 18 21 20 16 20
29 31 32 33 35 37 38 39 39 41 42 42 41 40 40 39 37 35 33 31 29 25 20 17 16 15 15 14 17 16 17 15 14 15 18 18 19 20
31 33 33 35 37 38 39 39 41 41 42 41 39 38 37 36 35 33 31 30 26 23 25 27 26 14 13 13 14 16 18 18 17 12 9 10 16 19
33 34 36 37 38 39 40 41 40 41 40 39 38 37 35 34 32 30 29 27 24 26 27 29 27 14 15 14 14 14 15 16 17 18 17 10 5 3
Wind_Direction
295 294 299 301 304 307 311 313 312 315 315 317 318 322 323 322 322 318 313 311 305 300 294 292 293 294 296 298 300 303 305 307 310 312 315 318 319 319
299 299 303 305 307 310 314 314 316 315 316 321 320 321 322 321 320 319 316 313 311 305 300 295 293 293 295 295 294 297 301 304 305 308 312 316 318 318
302 302 306 307 309 311 315 317 320 318 315 320 319 320 320 320 320 320 318 315 313 310 305 300 297 294 293 294 294 292 296 300 298 302 307 311 314 316
302 304 308 309 313 314 318 316 320 320 319 319 322 322 320 321 320 318 317 317 314 312 309 306 301 298 294 292 291 287 288 290 292 297 303 308 311 313
304 304 307 311 311 313 317 317 320 320 321 320 321 324 323 324 321 321 319 318 317 315 312 308 306 302 298 295 291 285 292 285 290 294 298 304 308 310
312 311 312 311 313 315 316 318 320 321 323 322 323 324 324 325 324 322 320 320 318 318 315 312 310 306 302 297 293 289 294 287 291 290 300 302 307 309
311 313 316 317 320 320 320 321 322 322 322 322 321 323 323 323 322 323 319 320 319 319 316 313 312 309 305 300 295 294 292 289 281 291 297 303 307 309
311 316 321 325 326 327 328 330 329 325 323 323 323 322 322 323 324 322 321 321 320 325 321 318 318 313 310 304 296 298 295 286 287 293 300 305 306 310
315 317 321 325 327 327 329 328 328 328 327 325 322 323 323 325 324 323 323 322 321 323 323 318 319 313 310 304 293 292 290 290 291 298 303 304 308 311
321 320 322 325 328 326 325 325 326 327 328 328 326 326 326 327 326 325 324 322 321 323 325 320 321 314 310 304 294 290 288 286 297 302 303 309 312 312
323 326 327 325 326 326 324 324 325 327 330 330 329 329 328 329 329 328 326 324 322 323 326 323 324 318 313 305 297 282 281 293 302 303 312 316 315 314
324 326 327 326 325 325 324 323 324 325 327 328 330 332 332 332 332 330 328 325 324 323 329 325 326 324 319 316 302 284 295 296 300 312 317 317 315 312
318 320 322 324 325 325 326 326 325 327 328 328 328 329 331 332 332 332 331 328 324 321 321 323 324 323 314 316 322 296 286 309 315 320 319 316 314 315
317 320 323 323 324 325 326 327 328 328 328 328 328 329 330 331 331 332 331 329 325 319 318 317 320 319 316 320 322 321 315 317 321 322 322 318 317 316
321 323 323 324 325 325 326 326 327 327 327 327 327 328 329 330 331 331 332 332 330 326 321 316 310 312 307 316 319 320 321 320 325 326 327 322 317 323
321 322 323 323 323 323 324 325 327 328 328 327 327 328 330 331 332 334 333 335 334 332 332 326 311 300 294 299 311 318 321 325 336 331 321 311 318 329
318 318 319 319 320 321 323 325 326 327 328 328 328 328 330 331 332 334 335 336 335 334 333 338 328 316 301 303 308 313 321 325 326 319 316 314 325 333
316 316 316 318 319 320 321 323 325 326 327 327 328 328 329 330 331 333 335 336 335 334 333 344 339 336 319 308 310 315 322 321 319 316 320 323 317 327
316 316 317 319 320 321 321 322 323 325 326 327 327 328 329 331 332 333 334 335 334 334 331 328 341 328 316 306 314 319 319 318 315 312 321 331 325 302
317 316 317 319 320 320 321 321 322 323 324 325 326 327 329 329 330 331 332 333 333 332 329 323 316 310 309 310 311 313 318 314 313 313 314 321 333 324
316 317 318 318 319 320 320 321 321 322 323 324 326 327 328 329 329 330 330 331 332 331 324 320 313 310 311 314 309 312 308 304 311 320 321 323 321 324
317 317 318 318 319 319 320 320 320 322 323 324 325 326 328 329 328 328 329 328 328 327 316 292 289 312 307 308 307 310 306 301 309 328 341 342 330 325
318 318 318 319 319 319 319 320 321 321 322 324 325 326 327 327 328 327 326 326 322 313 301 288 291 303 302 303 304 310 307 305 304 312 323 346 14 39